Grand Canyon, AZ

8:57 PM MST on July 26, 2017 (GMT -0700)
Grand Canyon National Park

Weather History for KGCN - May, 2014

Change the Weather History Date:

Wednesday, May 7, 2014

  Actual Average Record
Temperature  
Mean Temperature 37 °F -  
Max Temperature 51 °F 65 °F 84 °F (1989)
Min Temperature 23 °F 27 °F 17 °F (1988)
Degree Days  
Heating Degree Days 28    
Moisture  
Dew Point 23 °F    
Average Humidity 55    
Maximum Humidity 79    
Minimum Humidity 34    
Precipitation  
Precipitation 0.00 in - - ()
Sea Level Pressure  
Sea Level Pressure 29.78 in    
Wind  
Wind Speed 7 mph (SW)    
Max Wind Speed 22 mph    
Max Gust Speed 32 mph    
Visibility 10 miles    
Events Rain    
Averages and records for this station are not official NWS values.
T = Trace of Precipitation, MM = Missing Value Source: NWS Daily Summary

Daily Weather History Graph

Daily Weather History Graph

Search for Another Location

Airport or City:

Trip Planner

Search our weather history database for the weather conditions in past years. The results will help you decide how hot, cold, wet, or windy it might be!

Date:

Astronomy

May. 07, 2014 Rise Set
Actual Time 5:29 AM MST 7:20 PM MST
Civil Twilight 5:02 AM MST 7:48 PM MST
Nautical Twilight 4:28 AM MST 8:22 PM MST
Astronomical Twilight 3:52 AM MST 8:58 PM MST
Moon 12:42 PM MST (5/7) 1:17 AM MST (5/7)
Length of Visible Light 14h 46m
Length of Day
13h 50m
First Quarter, 56% of the Moon is Illuminated
May 7
First Quarter
May 14
Full
May 21
Last Quarter
May 28
New
Jun 5
First Quarter

Hourly Weather History & Observations

Time (MST) Temp. Windchill Dew Point Humidity Pressure Visibility Wind Dir Wind Speed Gust Speed Precip Events Conditions
12:54 AM 33.1 °F 27.7 °F 12.9 °F 43% 29.64 in 10.0 mi SW 5.8 mph - N/A   Clear
1:54 AM 28.0 °F - 15.1 °F 58% 29.67 in 10.0 mi Calm Calm - N/A   Partly Cloudy
2:54 AM 24.1 °F - 15.1 °F 69% 29.69 in 10.0 mi Calm Calm - N/A   Clear
3:54 AM 24.1 °F - 17.1 °F 75% 29.68 in 10.0 mi Calm Calm - N/A   Clear
4:54 AM 23.0 °F - 16.0 °F 74% 29.70 in 10.0 mi Calm Calm - N/A   Clear
5:54 AM 24.1 °F 16.0 °F 16.0 °F 71% 29.73 in 10.0 mi NE 6.9 mph - N/A   Clear
6:54 AM 36.0 °F 29.6 °F 19.9 °F 52% 29.69 in 10.0 mi South 8.1 mph - N/A   Partly Cloudy
7:54 AM 41.0 °F 34.7 °F 19.9 °F 43% 29.70 in 10.0 mi SSW 10.4 mph - N/A   Mostly Cloudy
8:54 AM 43.0 °F 37.7 °F 21.9 °F 43% 29.72 in 10.0 mi SSW 9.2 mph 18.4 mph N/A   Mostly Cloudy
10:54 AM 48.0 °F - 21.0 °F 34% 29.74 in 10.0 mi WSW 16.1 mph 26.5 mph N/A   Overcast
11:54 AM 45.0 °F 38.2 °F 23.0 °F 42% 29.77 in 10.0 mi SSW 15.0 mph - N/A   Overcast
12:54 PM 46.9 °F - 26.1 °F 44% 29.78 in 10.0 mi SSW 15.0 mph 27.6 mph 0.00 in Rain Light Rain
1:54 PM 44.1 °F 40.1 °F 32.0 °F 63% 29.83 in 10.0 mi SW 6.9 mph - 0.00 in Rain Light Rain
2:54 PM 51.1 °F - 27.0 °F 39% 29.80 in 10.0 mi SW 13.8 mph 24.2 mph 0.00 in   Mostly Cloudy
3:54 PM 46.9 °F - 28.0 °F 48% 29.82 in 10.0 mi WSW 15.0 mph 25.3 mph 0.00 in   Overcast
4:54 PM 48.9 °F - 24.1 °F 38% 29.82 in 10.0 mi West 10.4 mph 17.3 mph 0.00 in   Overcast
5:54 PM 48.0 °F - 27.0 °F 44% 29.85 in 10.0 mi West 21.9 mph 32.2 mph N/A   Mostly Cloudy
6:54 PM 44.1 °F 40.1 °F 26.1 °F 49% 29.85 in 10.0 mi Variable 6.9 mph - 0.00 in   Overcast
7:54 PM 44.1 °F 39.0 °F 27.0 °F 51% 29.83 in 10.0 mi SW 9.2 mph - N/A   Overcast
8:54 PM 41.0 °F 35.2 °F 30.9 °F 67% 29.87 in 10.0 mi SW 9.2 mph - N/A   Overcast
9:54 PM 36.0 °F 32.1 °F 28.0 °F 73% 29.88 in 10.0 mi SW 4.6 mph - N/A   Mostly Cloudy
10:54 PM 39.0 °F - 30.0 °F 70% 29.88 in 10.0 mi Calm Calm - 0.00 in   Overcast
11:54 PM 36.0 °F 33.3 °F 30.0 °F 79% 29.89 in 10.0 mi SSE 3.5 mph - 0.00 in   Mostly Cloudy